Regional Weather Roundup
Issued by NWS Burlington, VT

Home | Current Version | Previous Version | Text Only | Print | Product List | Glossary On
Versions: 1 2 3 4 5 6 7 8 9 10 11 12 13 14 15 16 17 18 19 20 21 22 23 24 25 26 27 28 29 30 31 32 33 34 35 36 37 38 39 40 41 42 43 44 45 46 47 48 49 50
000
ASUS41 KBTV 162310
RWRBTV
VERMONT REGIONAL WEATHER ROUNDUP
NATIONAL WEATHER SERVICE BURLINGTON VT
600 PM EST SAT DEC 16 2017

NOTE: "FAIR" INDICATES FEW OR NO CLOUDS BELOW 12,000 FEET WITH NO
SIGNIFICANT WEATHER AND/OR OBSTRUCTIONS TO VISIBILITY.

* THESE REPORTS ARE NOT UNDER NWS QUALITY CONTROL AND/OR DO NOT
  REPORT WEATHER SUCH AS PRECIPITATION AND FOG.

VTZ001>019-170000-
_____VERMONT_____


CITY           SKY/WX    TMP DP  RH WIND       PRES   REMARKS
BURLINGTON     CLEAR     19   7  59 N6        30.06R WCI  11
MONTPELIER     MOCLDY    15   8  73 NW6       30.01R WCI   6
MORRISVILLE    LGT SNOW  15  10  80 N12       30.03R WCI   2
ST. JOHNSBURY*   N/A     17  10  74 MISG      29.99R
LYNDONVILLE*   LGT SNOW  15   9  76 W6        29.98R WCI   6
MIDDLEBURY*    FAIR      13   4  65 N5        30.03R WCI   5
RUTLAND*       MOCLDY    23   8  52 NW13G18   30.00R WCI  11
SPRINGFIELD    PTCLDY    19  17  92 CALM      30.00R
HIGHGATE*      CLOUDY    15  10  80 CALM      30.07R
NEWPORT*       LGT SNOW  13   9  83 NW7       30.01R WCI   3
BENNINGTON     MOCLDY    25  16  68 W7        30.02R WCI  17
SUTTON*          N/A     12 N/A N/A MISG        N/A

_____LAKE CHAMPLAIN_____


CITY           SKY/WX    TMP DP  RH WIND       PRES   REMARKS
BURTON ISLAND*   N/A     23  14  68 N9G16       N/A  WCI  13
COLCHESTER RF*   N/A     25  10  54 NW15        N/A  WCI  12
DIAMOND ISL*     N/A     27   7  43 NW12G20     N/A  WCI  16

$$

NYZ007-026>031-035-052-083-087-170000-
_____NORTHERN NEW YORK_____


CITY           SKY/WX    TMP DP  RH WIND       PRES   REMARKS
PLATTSBURGH    CLEAR     18   5  57 NW5       30.07R WCI  11
SARANAC LAKE   CLEAR     11   5  77 CALM      29.95R
MASSENA        CLEAR     12   5  73 W6        30.12R WCI   3
OGDENSBURG*    FAIR      15   7  71 N7        30.12R WCI   5
POTSDAM*       MOCLDY    10   3  72 CALM      30.09R
WATERTOWN      CLEAR     15   3  59 NW7       30.10R WCI   5
FT DRUM        CLEAR     14   2  57 CALM      30.05R
ALBANY         MOCLDY    25  15  66 NW9       30.08R WCI  15
GLENS FALLS    PTCLDY    17  12  80 CALM      30.05R

$$
NHZ002-005-011-170000-
_____NEW HAMPSHIRE_____


CITY           SKY/WX    TMP DP  RH WIND       PRES   REMARKS
LEBANON        CLEAR     14  10  84 CALM      29.99R
KEENE          FLURRIES  24  16  71 N14G23    30.03R WCI  12
MT WASHINGTON  SNOWSHWR  -6  -6 100 NW60G69     N/A  VSB 0   WCI -41
PLYMOUTH       FAIR      22  10  59 W6        29.98R WCI  14
WHITEFIELD     CLEAR     16   9  74 W8        29.96R WCI   5

$$

_____REGIONAL QUEBEC LOCATIONS_____


CITY           SKY/WX    TMP DP  RH WIND       PRES   REMARKS
MONTREAL       PTCLDY    14   5  67 W10       30.08R WCI   1
QUEBEC CITY    PTCLDY     9   1  72 SW13      29.99R WCI  -7
SHERBROOKE     FLURRIES   9   3  78 W9        30.00R WCI  -5

_____REGIONAL ONTARIO LOCATIONS_____


CITY           SKY/WX    TMP DP  RH WIND       PRES   REMARKS
OTTAWA         CLEAR     10   1  67 W9        30.12R WCI  -2

______KEY______
VSB  - VISIBILITY IN MILES
WCI  - WIND CHILL INDEX
HX   - HEAT INDEX
$$
NNNN



USA.gov is the U.S. government's official web portal to all federal, state and local government web resources and services.